Хуло

Грузия     41°38′39″N   42°18′53″E
темп.,
°C
ветер,
м/с
пор.,
м/с
влажн.,
%
обл.,
%
осадки,
мм/ч
давл.,
гПа
погр.,
м
12 мая, ср
ср1201:00+2в22820 0.0 101817
04:00+2в32780 0.0 101731
07:00+5в33690 0.0 101551
10:00+13ю12460 0.0 1013758
13:00+17зюз23340 0.0 10111758
16:00+18з13332 0.0 10112035
19:00+15з016765 0.0 101165
22:00+10в336691 0.0 101441
13 мая, чт
чт1301:00+9в33642 0.0 101438
04:00+9в43580 0.0 101439
07:00+10в33540 0.0 101447
10:00+19юв22332 0.0 1013828
13:00+22зюз13242 0.0 10122620
16:00+22сз24272 0.0 10112750
19:00+17в346038 0.0 1012119
22:00+10вюв448525 1.4 101769
14 мая, пт
пт1401:00+10в44710 0.1 101656
04:00+11в43660 0.1 101545
07:00+12в336495 0.0 101554
10:00+20юв22392 0.0 1013819
13:00+23ююз13220 0.0 10122702
16:00+23сз34295 0.0 10122998
19:00+19с11630 0.3 101343
22:00+13в33653 0.3 101632
15 мая, сб
сб1501:00+12в32735 0.0 101629
04:00+12в336890 0.1 101629
07:00+12в336998 0.0 101645
10:00+19ююв114915 0.0 1014882
13:00+22зюз224122 0.1 10132012
16:00+20з325313 0.6 1013737
19:00+17з11730 1.3 1013175
22:00+11в22851 1.6 101521
16 мая, вс
вс1601:00+11в338471 0.0 101439
04:00+10в33785 0.0 101343
07:00+12в34745 0.0 101264
10:00+19юв23465 0.0 1009702
13:00+23юв24354 0.0 10072443
16:00+21всв245099 0.0 1005699
19:00+16вюв337127 2.3 100754
22:00+13вюв3379100 2.5 100959